Bei Facebook empfehlenBei Twitter postenGoogle plusPinterest

Das Wetter im Erzgebirge am 27.01.2015

Wetter und Klima am 27.01.2015 Holzhau im Erzgebirge (630m ü.NN)
Letzte gemessene Temperatur und Uhrzeit der Messung23:45:00 Uhr-0.80 °C
Temperatur (Maximum / Höchstwert) und Uhrzeit der Messung13:30:00 Uhr0.10 °C
Temperatur (Minimum / Tiefstwert) und Uhrzeit der Messung08:15:00-0.90 °C
Errechneter Absolutwert der Temperaturschwankungen zwischen Tmin und Tmax des Tages1.00 K
Errechnete Tagesmitteltemperatur-0.61875 °C
Gesamt - Niederschlag des Tages (in flüssiger Form)0.00 Liter / m²
Luftdruck (Maximum / Höchstwert) und Zeitpunkt der Messung21:45:00 Uhr1014.00 hPa
Luftdruck (Minimum / Tiefstwert) und Zeitpunkt der Messung02:45:00 Uhr1008.30 hPa
Errechneter Absolutwert der Luftdruckschwankungen des Tages5.70 hPa
Höchste gemessene Windgeschwindigkeit und Uhrzeit der Messung23:45:00 Uhr0.00 km/h
Errechnete Windhäufigkeit in Relation zu den Messwerten des Tages0.00000 %
Niedrigste Windkühle (Windchill) und Zeitpunkt der Messung08:15:00 Uhr-0.90 °C
Taupunkt (Maximum / Höchstwert) und Uhrzeit der Messung13:30:00 Uhr-1.00 °C
Taupunkt (Minimum / Tiefstwert) und Uhrzeit der Messung00:00:00-2.20 °C
Anzahl der automatisch eingelesenen Messwerte 96

Detaillierte Wetter- und Klima- Messwerte für den 27.01.2015 in Holzhau im Erzgebirge (630m ü.NN)
ZeitTemperaturLuftdruckRel. LuftfeuchteWindWindrichtungWindchillTaupunktNiederschlag l/m²
23:45:00-0.80 °C1013.50 hPa94.00 %-1.70 °C 
23:30:00-0.80 °C1013.60 hPa94.00 %-1.70 °C 
23:15:00-0.80 °C1013.70 hPa94.00 %-1.70 °C 
23:00:00-0.70 °C1013.70 hPa94.00 %-1.60 °C 
22:45:00-0.70 °C1013.80 hPa94.00 %-1.60 °C 
22:30:00-0.70 °C1013.80 hPa94.00 %-1.60 °C 
22:15:00-0.70 °C1013.90 hPa94.00 %-1.60 °C 
22:00:00-0.70 °C1013.80 hPa94.00 %-1.60 °C 
21:45:00-0.70 °C1014.00 hPa94.00 %-1.60 °C 
21:30:00-0.70 °C1013.70 hPa94.00 %-1.60 °C 
21:15:00-0.70 °C1013.70 hPa93.00 %-1.80 °C 
21:00:00-0.70 °C1013.60 hPa94.00 %-1.60 °C 
20:45:00-0.70 °C1013.60 hPa93.00 %-1.80 °C 
20:30:00-0.70 °C1013.50 hPa93.00 %-1.80 °C 
20:15:00-0.70 °C1013.50 hPa93.00 %-1.80 °C 
20:00:00-0.70 °C1013.50 hPa93.00 %-1.80 °C 
19:45:00-0.70 °C1013.30 hPa93.00 %-1.80 °C 
19:30:00-0.70 °C1013.30 hPa93.00 %-1.80 °C 
19:15:00-0.80 °C1013.10 hPa93.00 %-1.90 °C 
19:00:00-0.80 °C1012.90 hPa93.00 %-1.90 °C 
18:45:00-0.80 °C1012.90 hPa93.00 %-1.90 °C 
18:30:00-0.80 °C1012.70 hPa93.00 %-1.90 °C 
18:15:00-0.80 °C1012.80 hPa93.00 %-1.90 °C 
18:00:00-0.80 °C1012.60 hPa93.00 %-1.90 °C 
17:45:00-0.80 °C1012.40 hPa93.00 %-1.90 °C 
17:30:00-0.80 °C1012.30 hPa93.00 %-1.90 °C 
17:15:00-0.80 °C1012.20 hPa93.00 %-1.90 °C 
17:00:00-0.70 °C1012.10 hPa93.00 %-1.80 °C 
16:45:00-0.70 °C1012.20 hPa92.00 %-2.00 °C 
16:30:00-0.70 °C1012.20 hPa92.00 %-2.00 °C 
16:15:00-0.60 °C1012.00 hPa92.00 %-1.90 °C 
16:00:00-0.50 °C1012.00 hPa92.00 %-1.80 °C 
15:45:00-0.40 °C1011.90 hPa92.00 %-1.70 °C 
15:30:00-0.30 °C1011.80 hPa92.00 %-1.60 °C 
15:15:00-0.20 °C1011.80 hPa92.00 %-1.50 °C 
15:00:00-0.40 °C1011.80 hPa92.00 %-1.70 °C 
14:45:00-0.40 °C1011.70 hPa92.00 %-1.70 °C 
14:30:00-0.50 °C1011.90 hPa92.00 %-1.80 °C 
14:15:00-0.50 °C1011.70 hPa92.00 %-1.80 °C 
14:00:00-0.40 °C1011.70 hPa92.00 %-1.70 °C 
13:45:00-0.20 °C1011.70 hPa92.00 %-1.50 °C 
13:30:000.10 °C1011.60 hPa92.00 %-1.00 °C 
13:15:000.00 °C1011.60 hPa92.00 %-1.30 °C 
13:00:00-0.40 °C1011.70 hPa93.00 %-1.50 °C 
12:45:00-0.60 °C1011.80 hPa93.00 %-1.70 °C 
12:30:00-0.60 °C1011.70 hPa93.00 %-1.70 °C 
12:15:00-0.50 °C1011.50 hPa93.00 %-1.60 °C 
12:00:00-0.40 °C1011.50 hPa93.00 %-1.50 °C 
11:45:00-0.40 °C1011.50 hPa94.00 %-1.30 °C 
11:30:00-0.60 °C1011.30 hPa94.00 %-1.50 °C 
11:15:00-0.50 °C1011.20 hPa94.00 %-1.40 °C 
11:00:00-0.20 °C1011.20 hPa94.00 %-1.10 °C 
10:45:00-0.50 °C1011.30 hPa94.00 %-1.40 °C 
10:30:00-0.70 °C1011.00 hPa93.00 %-1.80 °C 
10:15:00-0.60 °C1010.90 hPa94.00 %-1.50 °C 
10:00:00-0.60 °C1010.80 hPa94.00 %-1.50 °C 
09:45:00-0.60 °C1010.60 hPa94.00 %-1.50 °C 
09:30:00-0.50 °C1010.40 hPa94.00 %-1.40 °C 
09:15:00-0.70 °C1010.40 hPa94.00 %-1.60 °C 
09:00:00-0.70 °C1010.40 hPa94.00 %-1.60 °C 
08:45:00-0.70 °C1010.20 hPa94.00 %-1.60 °C 
08:30:00-0.80 °C1010.00 hPa94.00 %-1.70 °C 
08:15:00-0.90 °C1010.00 hPa94.00 %-1.80 °C 
08:00:00-0.90 °C1009.80 hPa94.00 %-1.80 °C 
07:45:00-0.90 °C1009.70 hPa94.00 %-1.80 °C 
07:30:00-0.80 °C1009.80 hPa94.00 %-1.70 °C 
07:15:00-0.80 °C1009.60 hPa94.00 %-1.70 °C 
07:00:00-0.80 °C1009.40 hPa94.00 %-1.70 °C 
06:45:00-0.70 °C1009.20 hPa94.00 %-1.60 °C 
06:30:00-0.70 °C1009.10 hPa94.00 %-1.60 °C 
06:15:00-0.70 °C1009.10 hPa94.00 %-1.60 °C 
06:00:00-0.70 °C1009.10 hPa94.00 %-1.60 °C 
05:45:00-0.70 °C1009.00 hPa94.00 %-1.60 °C 
05:30:00-0.60 °C1008.70 hPa94.00 %-1.50 °C 
05:15:00-0.60 °C1008.70 hPa94.00 %-1.50 °C 
05:00:00-0.60 °C1008.90 hPa94.00 %-1.50 °C 
04:45:00-0.60 °C1008.70 hPa94.00 %-1.50 °C 
04:30:00-0.50 °C1008.70 hPa94.00 %-1.40 °C 
04:15:00-0.50 °C1008.50 hPa94.00 %-1.40 °C 
04:00:00-0.50 °C1008.50 hPa94.00 %-1.40 °C 
03:45:00-0.50 °C1008.40 hPa94.00 %-1.40 °C 
03:30:00-0.50 °C1008.40 hPa94.00 %-1.40 °C 
03:15:00-0.50 °C1008.40 hPa94.00 %-1.40 °C 
03:00:00-0.50 °C1008.40 hPa94.00 %-1.40 °C 
02:45:00-0.50 °C1008.30 hPa94.00 %-1.40 °C 
02:30:00-0.50 °C1008.50 hPa94.00 %-1.40 °C 
02:15:00-0.50 °C1008.50 hPa93.00 %-1.60 °C 
02:00:00-0.60 °C1008.70 hPa93.00 %-1.70 °C 
01:45:00-0.60 °C1008.70 hPa93.00 %-1.70 °C 
01:30:00-0.60 °C1008.70 hPa93.00 %-1.70 °C 
01:15:00-0.70 °C1008.90 hPa93.00 %-1.80 °C 
01:00:00-0.70 °C1008.90 hPa93.00 %-1.80 °C 
00:45:00-0.70 °C1009.20 hPa93.00 %-1.80 °C 
00:30:00-0.70 °C1009.10 hPa92.00 %-2.00 °C 
00:15:00-0.80 °C1009.20 hPa92.00 %-2.10 °C 
00:00:00-0.90 °C1009.20 hPa92.00 %-2.20 °C 

Permanenter Link zu dieser Seite: Wetter im Erzgebirge am 27.01.2015
Performance-Info: Die Erstellung der Seite / Statistik(en) / Tabelle(n) erforderte 5 Datenbankserver-Abfrage(n) und dauerte 96 Millisekunden. (Dieser Messwert ist von der Gesamt-Auslastung des Servers abhängig.)
Erzgebirge - Wetter | Erzgebirge - Wetter (Mobilgeräte) | Komplette Klimadatenbank